Back to catalog

DELTA 1 DEB

AliveLEO
NORAD 14510·DEBRIS·🇺🇸 United States

Launched Jul 29, 1976 from Vandenberg Space Force Base

Loading…

Next Passes (next 24 hours)

TLE

FreshSource: Space-Track

Epoch: Sep 14, 2026, 07:14 UTC

1 14510U 76077ER  26257.30179091  .00000142  00000-0  21194-2 0  9996
2 14510 102.4326 179.7981 0222575  62.1473  87.0243 11.99461097938437

Track DELTA 1 DEB in real time with AllMySat

Download on the App Store